Time,TemperatureF,DewpointF,PressureIn,WindDirection,WindDirectionDegrees,WindSpeedMPH,WindSpeedGustMPH,Humidity,HourlyPrecipIn,Conditions,Clouds,dailyrainin,SoftwareType,DateUTC
2013-01-27 00:00:00,20.5,14.7,30.38,WSW,242,1.0,1.0,78,0.00,,,0.00,Wunderground v.1.15,2013-01-27 06:00:00,
2013-01-27 00:05:00,20.5,14.7,30.38,West,263,1.0,11.0,78,0.00,,,0.00,Wunderground v.1.15,2013-01-27 06:05:00,
2013-01-27 00:10:00,20.5,15.0,30.37,West,277,2.0,2.0,79,0.00,,,0.00,Wunderground v.1.15,2013-01-27 06:10:00,
2013-01-27 00:15:00,20.5,15.0,30.37,West,280,2.0,4.0,79,0.00,,,0.00,Wunderground v.1.15,2013-01-27 06:15:00,
2013-01-27 00:20:00,20.6,15.1,30.36,WSW,254,2.0,11.0,79,0.00,,,0.00,Wunderground v.1.15,2013-01-27 06:20:00,
2013-01-27 00:25:00,20.6,15.1,30.36,West,281,2.0,11.0,79,0.00,,,0.00,Wunderground v.1.15,2013-01-27 06:25:00,
2013-01-27 00:30:00,20.7,15.2,30.36,WSW,242,2.0,11.0,79,0.00,,,0.00,Wunderground v.1.15,2013-01-27 06:30:00,
2013-01-27 00:35:00,20.7,15.2,30.36,WSW,248,1.0,11.0,79,0.00,,,0.00,Wunderground v.1.15,2013-01-27 06:35:00,
2013-01-27 00:40:00,20.7,14.9,30.36,WSW,248,1.0,11.0,78,0.00,,,0.00,Wunderground v.1.15,2013-01-27 06:40:00,
2013-01-27 00:45:00,20.8,15.0,30.35,NW,306,1.0,11.0,78,0.00,,,0.00,Wunderground v.1.15,2013-01-27 06:45:00,
2013-01-27 00:55:00,20.9,15.1,30.35,NW,306,0.0,11.0,78,0.00,,,0.00,Wunderground v.1.15,2013-01-27 06:55:00,
2013-01-27 01:00:00,20.9,15.1,30.35,NW,306,0.0,11.0,78,0.00,,,0.00,Wunderground v.1.15,2013-01-27 07:00:00,
2013-01-27 01:05:00,20.9,15.1,30.35,NW,306,0.0,11.0,78,0.00,,,0.00,Wunderground v.1.15,2013-01-27 07:05:00,
2013-01-27 01:15:00,20.9,15.4,30.35,NW,306,0.0,11.0,79,0.00,,,0.00,Wunderground v.1.15,2013-01-27 07:15:00,
2013-01-27 01:20:00,20.9,15.4,30.35,NW,306,0.0,11.0,79,0.00,,,0.00,Wunderground v.1.15,2013-01-27 07:20:00,
2013-01-27 01:30:00,20.9,15.4,30.35,NW,306,0.0,11.0,79,0.00,,,0.00,Wunderground v.1.15,2013-01-27 07:30:00,
2013-01-27 01:35:00,21.0,15.5,30.35,NW,306,0.0,11.0,79,0.00,,,0.00,Wunderground v.1.15,2013-01-27 07:35:00,
2013-01-27 01:40:00,21.0,15.5,30.35,NW,306,0.0,11.0,79,0.00,,,0.00,Wunderground v.1.15,2013-01-27 07:40:00,
2013-01-27 01:45:00,21.1,15.6,30.35,NW,306,0.0,11.0,79,0.00,,,0.00,Wunderground v.1.15,2013-01-27 07:45:00,
2013-01-27 01:50:00,21.2,15.7,30.35,NW,306,0.0,11.0,79,0.00,,,0.00,Wunderground v.1.15,2013-01-27 07:50:00,
2013-01-27 01:55:00,21.2,15.7,30.35,NW,306,0.0,11.0,79,0.00,,,0.00,Wunderground v.1.15,2013-01-27 07:55:00,
2013-01-27 02:00:00,21.2,15.7,30.35,WSW,237,1.0,11.0,79,0.00,,,0.00,Wunderground v.1.15,2013-01-27 08:00:00,
2013-01-27 02:10:00,21.1,15.9,30.36,WSW,240,1.0,11.0,80,0.00,,,0.00,Wunderground v.1.15,2013-01-27 08:10:00,
2013-01-27 02:15:00,21.0,15.8,30.35,West,265,2.0,11.0,80,0.00,,,0.00,Wunderground v.1.15,2013-01-27 08:15:00,
2013-01-27 02:20:00,21.0,16.1,30.35,WNW,282,2.0,11.0,81,0.00,,,0.00,Wunderground v.1.15,2013-01-27 08:20:00,
2013-01-27 02:30:00,21.1,16.7,30.35,WNW,293,3.0,11.0,83,0.00,,,0.00,Wunderground v.1.15,2013-01-27 08:30:00,
2013-01-27 02:35:00,21.2,17.1,30.36,WSW,246,3.0,11.0,84,0.00,,,0.00,Wunderground v.1.15,2013-01-27 08:35:00,
2013-01-27 02:40:00,21.2,17.1,30.36,West,267,3.0,3.0,84,0.00,,,0.00,Wunderground v.1.15,2013-01-27 08:40:00,
2013-01-27 02:45:00,21.2,17.4,30.36,West,259,3.0,11.0,85,0.00,,,0.00,Wunderground v.1.15,2013-01-27 08:45:00,
2013-01-27 02:50:00,21.4,17.6,30.35,West,259,4.0,11.0,85,0.00,,,0.00,Wunderground v.1.15,2013-01-27 08:50:00,
2013-01-27 02:55:00,21.5,18.0,30.35,WNW,290,4.0,11.0,86,0.00,,,0.00,Wunderground v.1.15,2013-01-27 08:55:00,
2013-01-27 03:00:00,21.6,18.3,30.35,WSW,257,4.0,11.0,87,0.00,,,0.00,Wunderground v.1.15,2013-01-27 09:00:00,
2013-01-27 03:05:00,21.8,18.5,30.35,WSW,254,4.0,11.0,87,0.00,,,0.00,Wunderground v.1.15,2013-01-27 09:05:00,
2013-01-27 03:10:00,21.9,18.6,30.34,West,271,4.0,4.0,87,0.00,,,0.00,Wunderground v.1.15,2013-01-27 09:10:00,
2013-01-27 03:15:00,22.0,18.7,30.34,West,271,3.0,11.0,87,0.00,,,0.00,Wunderground v.1.15,2013-01-27 09:15:00,
2013-01-27 03:25:00,22.3,19.3,30.34,West,265,3.0,11.0,88,0.00,,,0.00,Wunderground v.1.15,2013-01-27 09:25:00,
2013-01-27 03:30:00,22.4,19.4,30.33,South,190,3.0,11.0,88,0.00,,,0.00,Wunderground v.1.15,2013-01-27 09:30:00,
2013-01-27 03:40:00,22.6,19.6,30.33,SW,228,3.0,3.0,88,0.00,,,0.00,Wunderground v.1.15,2013-01-27 09:40:00,
2013-01-27 03:50:00,22.8,19.8,30.33,SW,229,4.0,4.0,88,0.00,,,0.00,Wunderground v.1.15,2013-01-27 09:50:00,
2013-01-27 03:55:00,22.9,19.9,30.33,West,271,3.0,11.0,88,0.00,,,0.00,Wunderground v.1.15,2013-01-27 09:55:00,
2013-01-27 04:00:00,23.0,20.0,30.33,WNW,284,2.0,11.0,88,0.00,,,0.00,Wunderground v.1.15,2013-01-27 10:00:00,
2013-01-27 04:10:00,23.1,20.1,30.32,SW,236,1.0,1.0,88,0.00,,,0.00,Wunderground v.1.15,2013-01-27 10:10:00,
2013-01-27 04:15:00,23.2,20.2,30.32,SW,222,1.0,4.0,88,0.00,,,0.00,Wunderground v.1.15,2013-01-27 10:15:00,
2013-01-27 04:25:00,23.5,20.5,30.31,WSW,256,2.0,2.0,88,0.00,,,0.00,Wunderground v.1.15,2013-01-27 10:25:00,
2013-01-27 04:30:00,23.6,20.3,30.31,WSW,241,1.0,11.0,87,0.00,,,0.00,Wunderground v.1.15,2013-01-27 10:30:00,
2013-01-27 04:35:00,23.8,20.5,30.31,WSW,253,2.0,11.0,87,0.00,,,0.00,Wunderground v.1.15,2013-01-27 10:35:00,
2013-01-27 04:40:00,24.0,20.7,30.31,SW,230,3.0,3.0,87,0.00,,,0.00,Wunderground v.1.15,2013-01-27 10:40:00,
2013-01-27 04:45:00,24.2,20.6,30.31,West,273,3.0,11.0,86,0.00,,,0.00,Wunderground v.1.15,2013-01-27 10:45:00,
2013-01-27 04:50:00,24.4,20.5,30.30,SW,223,3.0,11.0,85,0.00,,,0.00,Wunderground v.1.15,2013-01-27 10:50:00,
2013-01-27 04:55:00,24.6,20.5,30.30,WSW,240,3.0,11.0,84,0.00,,,0.00,Wunderground v.1.15,2013-01-27 10:55:00,
2013-01-27 05:00:00,24.7,20.6,30.30,West,267,3.0,3.0,84,0.00,,,0.00,Wunderground v.1.15,2013-01-27 11:00:00,
2013-01-27 05:05:00,24.7,20.3,30.30,SW,223,3.0,11.0,83,0.00,,,0.00,Wunderground v.1.15,2013-01-27 11:05:00,
2013-01-27 05:10:00,24.8,20.1,30.30,West,272,3.0,11.0,82,0.00,,,0.00,Wunderground v.1.15,2013-01-27 11:10:00,
2013-01-27 05:20:00,24.9,19.9,30.30,West,261,2.0,11.0,81,0.00,,,0.00,Wunderground v.1.15,2013-01-27 11:20:00,
2013-01-27 05:25:00,25.0,19.7,30.30,SW,224,3.0,11.0,80,0.00,,,0.00,Wunderground v.1.15,2013-01-27 11:25:00,
2013-01-27 05:30:00,25.2,19.9,30.30,WSW,246,3.0,3.0,80,0.00,,,0.00,Wunderground v.1.15,2013-01-27 11:30:00,
2013-01-27 05:35:00,25.2,19.6,30.30,West,281,3.0,4.0,79,0.00,,,0.00,Wunderground v.1.15,2013-01-27 11:35:00,
2013-01-27 05:40:00,25.3,19.4,30.30,WSW,252,3.0,3.0,78,0.00,,,0.00,Wunderground v.1.15,2013-01-27 11:40:00,
2013-01-27 05:45:00,25.4,19.5,30.29,WSW,252,3.0,4.0,78,0.00,,,0.00,Wunderground v.1.15,2013-01-27 11:45:00,
2013-01-27 05:55:00,25.4,19.2,30.30,WSW,250,3.0,11.0,77,0.00,,,0.00,Wunderground v.1.15,2013-01-27 11:55:00,
2013-01-27 06:00:00,25.5,19.3,30.29,SW,227,3.0,11.0,77,0.00,,,0.00,Wunderground v.1.15,2013-01-27 12:00:00,
2013-01-27 06:05:00,25.6,19.4,30.29,SW,234,4.0,11.0,77,0.00,,,0.00,Wunderground v.1.15,2013-01-27 12:05:00,
2013-01-27 06:10:00,25.6,19.4,30.29,WSW,246,3.0,11.0,77,0.00,,,0.00,Wunderground v.1.15,2013-01-27 12:10:00,
2013-01-27 06:15:00,25.8,19.3,30.29,SSW,210,3.0,11.0,76,0.00,,,0.00,Wunderground v.1.15,2013-01-27 12:15:00,
2013-01-27 06:20:00,25.9,19.4,30.30,SW,230,3.0,11.0,76,0.00,,,0.00,Wunderground v.1.15,2013-01-27 12:20:00,
2013-01-27 06:25:00,26.0,19.5,30.30,West,269,2.0,11.0,76,0.00,,,0.00,Wunderground v.1.15,2013-01-27 12:25:00,
2013-01-27 06:35:00,26.1,19.3,30.30,WSW,243,3.0,11.0,75,0.00,,,0.00,Wunderground v.1.15,2013-01-27 12:35:00,
2013-01-27 06:45:00,26.3,19.5,30.29,SW,230,4.0,11.0,75,0.00,,,0.00,Wunderground v.1.15,2013-01-27 12:45:00,
2013-01-27 06:50:00,26.3,19.5,30.29,WSW,246,4.0,11.0,75,0.00,,,0.00,Wunderground v.1.15,2013-01-27 12:50:00,
2013-01-27 06:55:00,26.3,19.5,30.29,SW,215,3.0,11.0,75,0.00,,,0.00,Wunderground v.1.15,2013-01-27 12:55:00,
2013-01-27 07:00:00,26.3,19.5,30.28,SW,215,3.0,11.0,75,0.00,,,0.00,Wunderground v.1.15,2013-01-27 13:00:00,
2013-01-27 07:10:00,26.4,19.2,30.27,SW,225,3.0,3.0,74,0.00,,,0.00,Wunderground v.1.15,2013-01-27 13:10:00,
2013-01-27 07:15:00,26.4,19.5,30.28,West,263,3.0,6.0,75,0.00,,,0.00,Wunderground v.1.15,2013-01-27 13:15:00,
2013-01-27 07:20:00,26.4,19.2,30.28,SW,224,3.0,3.0,74,0.00,,,0.00,Wunderground v.1.15,2013-01-27 13:20:00,
2013-01-27 07:25:00,26.4,19.5,30.28,WSW,240,3.0,11.0,75,0.00,,,0.00,Wunderground v.1.15,2013-01-27 13:25:00,
2013-01-27 07:35:00,26.6,19.7,30.28,WSW,252,4.0,11.0,75,0.00,,,0.00,Wunderground v.1.15,2013-01-27 13:35:00,
2013-01-27 07:40:00,26.7,19.8,30.28,West,259,4.0,4.0,75,0.00,,,0.00,Wunderground v.1.15,2013-01-27 13:40:00,
2013-01-27 07:45:00,26.7,19.8,30.28,WSW,258,3.0,11.0,75,0.00,,,0.00,Wunderground v.1.15,2013-01-27 13:45:00,
2013-01-27 07:50:00,26.9,19.7,30.29,WSW,246,3.0,11.0,74,0.00,,,0.00,Wunderground v.1.15,2013-01-27 13:50:00,
2013-01-27 07:55:00,27.0,19.8,30.29,West,265,4.0,11.0,74,0.00,,,0.00,Wunderground v.1.15,2013-01-27 13:55:00,
2013-01-27 08:00:00,27.0,19.8,30.29,WSW,240,3.0,11.0,74,0.00,,,0.00,Wunderground v.1.15,2013-01-27 14:00:00,
2013-01-27 08:05:00,27.2,20.0,30.28,WSW,239,3.0,11.0,74,0.00,,,0.00,Wunderground v.1.15,2013-01-27 14:05:00,
2013-01-27 08:10:00,27.3,20.1,30.28,WSW,245,3.0,11.0,74,0.00,,,0.00,Wunderground v.1.15,2013-01-27 14:10:00,
2013-01-27 08:15:00,27.4,20.2,30.28,West,265,3.0,11.0,74,0.00,,,0.00,Wunderground v.1.15,2013-01-27 14:15:00,
2013-01-27 08:20:00,27.6,20.4,30.29,SW,221,3.0,3.0,74,0.00,,,0.00,Wunderground v.1.15,2013-01-27 14:20:00,
2013-01-27 08:25:00,27.7,20.5,30.28,WNW,283,3.0,11.0,74,0.00,,,0.00,Wunderground v.1.15,2013-01-27 14:25:00,
2013-01-27 08:30:00,27.7,20.5,30.28,WSW,250,3.0,11.0,74,0.00,,,0.00,Wunderground v.1.15,2013-01-27 14:30:00,
2013-01-27 08:35:00,27.8,20.3,30.28,WSW,254,4.0,11.0,73,0.00,,,0.00,Wunderground v.1.15,2013-01-27 14:35:00,
2013-01-27 08:40:00,27.9,20.7,30.28,SW,230,3.0,11.0,74,0.00,,,0.00,Wunderground v.1.15,2013-01-27 14:40:00,
2013-01-27 08:45:00,28.0,20.8,30.28,WSW,242,3.0,11.0,74,0.00,,,0.00,Wunderground v.1.15,2013-01-27 14:45:00,
2013-01-27 08:50:00,28.1,20.9,30.28,WSW,237,3.0,11.0,74,0.00,,,0.00,Wunderground v.1.15,2013-01-27 14:50:00,
2013-01-27 08:55:00,28.3,20.7,30.29,West,273,4.0,11.0,73,0.00,,,0.00,Wunderground v.1.15,2013-01-27 14:55:00,
2013-01-27 09:00:00,28.4,20.8,30.28,SW,229,4.0,11.0,73,0.00,,,0.00,Wunderground v.1.15,2013-01-27 15:00:00,
2013-01-27 09:05:00,28.6,21.0,30.28,WSW,239,4.0,11.0,73,0.00,,,0.00,Wunderground v.1.15,2013-01-27 15:05:00,
2013-01-27 09:10:00,28.8,21.2,30.29,WSW,250,4.0,11.0,73,0.00,,,0.00,Wunderground v.1.15,2013-01-27 15:10:00,
2013-01-27 09:15:00,28.8,21.2,30.29,WSW,256,5.0,11.0,73,0.00,,,0.00,Wunderground v.1.15,2013-01-27 15:15:00,
2013-01-27 09:20:00,28.9,21.3,30.29,West,267,5.0,11.0,73,0.00,,,0.00,Wunderground v.1.15,2013-01-27 15:20:00,
2013-01-27 09:25:00,29.1,21.5,30.28,WNW,285,5.0,11.0,73,0.00,,,0.00,Wunderground v.1.15,2013-01-27 15:25:00,
2013-01-27 09:35:00,29.4,21.5,30.28,WSW,254,5.0,11.0,72,0.00,,,0.00,Wunderground v.1.15,2013-01-27 15:35:00,
2013-01-27 09:40:00,29.5,21.6,30.28,WNW,286,5.0,5.0,72,0.00,,,0.00,Wunderground v.1.15,2013-01-27 15:40:00,
2013-01-27 09:45:00,29.7,21.8,30.28,WSW,252,5.0,11.0,72,0.00,,,0.00,Wunderground v.1.15,2013-01-27 15:45:00,
2013-01-27 09:50:00,29.8,21.9,30.29,WSW,240,6.0,11.0,72,0.00,,,0.00,Wunderground v.1.15,2013-01-27 15:50:00,
2013-01-27 09:55:00,29.8,21.9,30.29,SW,230,6.0,11.0,72,0.00,,,0.00,Wunderground v.1.15,2013-01-27 15:55:00,
2013-01-27 10:00:00,29.7,21.8,30.28,WNW,290,6.0,6.0,72,0.00,,,0.00,Wunderground v.1.15,2013-01-27 16:00:00,
2013-01-27 10:05:00,29.6,21.7,30.28,WSW,247,7.0,12.0,72,0.00,,,0.00,Wunderground v.1.15,2013-01-27 16:05:00,
2013-01-27 10:10:00,29.7,21.8,30.28,SW,230,6.0,6.0,72,0.00,,,0.00,Wunderground v.1.15,2013-01-27 16:10:00,
2013-01-27 10:15:00,29.7,21.8,30.28,WSW,257,6.0,11.0,72,0.00,,,0.00,Wunderground v.1.15,2013-01-27 16:15:00,
2013-01-27 10:20:00,29.8,21.9,30.28,WSW,254,6.0,6.0,72,0.00,,,0.00,Wunderground v.1.15,2013-01-27 16:20:00,
2013-01-27 10:25:00,30.0,22.1,30.27,WNW,287,6.0,11.0,72,0.00,,,0.00,Wunderground v.1.15,2013-01-27 16:25:00,
2013-01-27 10:30:00,30.1,22.2,30.27,SSW,196,5.0,11.0,72,0.00,,,0.00,Wunderground v.1.15,2013-01-27 16:30:00,
2013-01-27 10:35:00,30.2,22.3,30.27,WSW,239,5.0,11.0,72,0.00,,,0.00,Wunderground v.1.15,2013-01-27 16:35:00,
2013-01-27 10:40:00,30.3,22.4,30.27,WSW,257,3.0,11.0,72,0.00,,,0.00,Wunderground v.1.15,2013-01-27 16:40:00,
2013-01-27 10:45:00,30.5,22.9,30.27,SW,223,3.0,11.0,73,0.00,,,0.00,Wunderground v.1.15,2013-01-27 16:45:00,
2013-01-27 10:50:00,30.6,23.0,30.27,West,281,4.0,11.0,73,0.00,,,0.00,Wunderground v.1.15,2013-01-27 16:50:00,
2013-01-27 10:55:00,30.5,22.9,30.27,WSW,255,6.0,11.0,73,0.00,,,0.00,Wunderground v.1.15,2013-01-27 16:55:00,
2013-01-27 11:00:00,30.6,23.0,30.26,WSW,246,6.0,6.0,73,0.00,,,0.00,Wunderground v.1.15,2013-01-27 17:00:00,
2013-01-27 11:05:00,30.8,23.5,30.26,NW,311,5.0,11.0,74,0.00,,,0.00,Wunderground v.1.15,2013-01-27 17:05:00,
2013-01-27 11:10:00,31.0,23.7,30.26,WNW,283,5.0,5.0,74,0.00,,,0.00,Wunderground v.1.15,2013-01-27 17:10:00,
2013-01-27 11:15:00,31.1,23.8,30.26,WSW,253,6.0,6.0,74,0.00,,,0.00,Wunderground v.1.15,2013-01-27 17:15:00,
2013-01-27 11:20:00,31.2,23.9,30.25,West,274,6.0,6.0,74,0.00,,,0.00,Wunderground v.1.15,2013-01-27 17:20:00,
2013-01-27 11:30:00,31.2,23.9,30.25,West,272,8.0,11.0,74,0.00,,,0.00,Wunderground v.1.15,2013-01-27 17:30:00,
2013-01-27 11:35:00,31.2,24.2,30.24,WNW,289,7.0,11.0,75,0.00,,,0.00,Wunderground v.1.15,2013-01-27 17:35:00,
2013-01-27 11:40:00,31.3,24.3,30.24,West,273,7.0,11.0,75,0.00,,,0.00,Wunderground v.1.15,2013-01-27 17:40:00,
2013-01-27 11:45:00,31.4,24.4,30.23,WSW,246,6.0,11.0,75,0.00,,,0.00,Wunderground v.1.15,2013-01-27 17:45:00,
2013-01-27 11:50:00,31.5,24.5,30.23,WSW,246,6.0,6.0,75,0.00,,,0.00,Wunderground v.1.15,2013-01-27 17:50:00,
2013-01-27 12:00:00,31.8,24.8,30.22,SW,236,6.0,6.0,75,0.00,,,0.00,Wunderground v.1.15,2013-01-27 18:00:00,
2013-01-27 12:05:00,32.0,25.0,30.22,WSW,251,5.0,11.0,75,0.00,,,0.00,Wunderground v.1.15,2013-01-27 18:05:00,
2013-01-27 12:10:00,32.2,25.2,30.22,West,268,5.0,5.0,75,0.00,,,0.00,Wunderground v.1.15,2013-01-27 18:10:00,
2013-01-27 12:15:00,32.2,25.2,30.22,West,271,5.0,5.0,75,0.00,,,0.00,Wunderground v.1.15,2013-01-27 18:15:00,
2013-01-27 12:20:00,32.4,25.4,30.21,West,261,5.0,5.0,75,0.00,,,0.00,Wunderground v.1.15,2013-01-27 18:20:00,
2013-01-27 12:25:00,32.3,25.6,30.21,WSW,248,5.0,7.0,76,0.00,,,0.00,Wunderground v.1.15,2013-01-27 18:25:00,
2013-01-27 12:30:00,32.4,25.7,30.21,WSW,237,6.0,7.0,76,0.00,,,0.00,Wunderground v.1.15,2013-01-27 18:30:00,
2013-01-27 12:35:00,32.5,25.8,30.21,SW,234,6.0,7.0,76,0.00,,,0.00,Wunderground v.1.15,2013-01-27 18:35:00,
2013-01-27 12:45:00,32.7,26.0,30.20,WSW,238,5.0,5.0,76,0.00,,,0.00,Wunderground v.1.15,2013-01-27 18:45:00,
2013-01-27 12:50:00,32.8,26.1,30.20,West,268,4.0,4.0,76,0.00,,,0.01,Wunderground v.1.15,2013-01-27 18:50:00,
2013-01-27 12:55:00,32.9,26.2,30.19,WSW,253,3.0,4.0,76,0.00,,,0.01,Wunderground v.1.15,2013-01-27 18:55:00,
2013-01-27 13:00:00,33.0,26.3,30.18,WSW,257,4.0,5.0,76,0.00,,,0.01,Wunderground v.1.15,2013-01-27 19:00:00,
2013-01-27 13:10:00,33.3,26.5,30.19,SW,234,4.0,13.0,76,0.00,,,0.01,Wunderground v.1.15,2013-01-27 19:10:00,
2013-01-27 13:15:00,33.3,26.5,30.18,West,259,5.0,13.0,76,0.00,,,0.01,Wunderground v.1.15,2013-01-27 19:15:00,
2013-01-27 13:20:00,33.3,26.5,30.19,West,261,6.0,6.0,76,0.00,,,0.01,Wunderground v.1.15,2013-01-27 19:20:00,
2013-01-27 13:25:00,33.4,26.6,30.19,WNW,282,5.0,13.0,76,0.00,,,0.01,Wunderground v.1.15,2013-01-27 19:25:00,
2013-01-27 13:30:00,33.4,26.6,30.18,WNW,282,3.0,13.0,76,0.00,,,0.01,Wunderground v.1.15,2013-01-27 19:30:00,
2013-01-27 13:35:00,33.4,26.6,30.18,West,263,3.0,13.0,76,0.00,,,0.01,Wunderground v.1.15,2013-01-27 19:35:00,
2013-01-27 13:40:00,33.3,26.5,30.18,West,267,4.0,13.0,76,0.00,,,0.01,Wunderground v.1.15,2013-01-27 19:40:00,
2013-01-27 13:50:00,33.2,26.5,30.17,SW,236,5.0,5.0,76,0.00,,,0.01,Wunderground v.1.15,2013-01-27 19:50:00,
2013-01-27 13:55:00,33.1,26.4,30.17,WSW,244,5.0,13.0,76,0.00,,,0.01,Wunderground v.1.15,2013-01-27 19:55:00,
2013-01-27 14:00:00,33.1,26.4,30.17,WSW,256,5.0,13.0,76,0.00,,,0.01,Wunderground v.1.15,2013-01-27 20:00:00,
2013-01-27 14:05:00,33.1,26.4,30.17,West,271,5.0,13.0,76,0.00,,,0.01,Wunderground v.1.15,2013-01-27 20:05:00,
2013-01-27 14:10:00,33.1,26.4,30.18,WSW,250,4.0,13.0,76,0.00,,,0.01,Wunderground v.1.15,2013-01-27 20:10:00,
2013-01-27 14:15:00,33.1,26.4,30.17,West,273,3.0,13.0,76,0.00,,,0.01,Wunderground v.1.15,2013-01-27 20:15:00,
2013-01-27 14:20:00,33.1,26.4,30.17,WSW,240,4.0,13.0,76,0.00,,,0.01,Wunderground v.1.15,2013-01-27 20:20:00,
2013-01-27 14:30:00,33.1,26.4,30.17,SW,221,4.0,4.0,76,0.00,,,0.01,Wunderground v.1.15,2013-01-27 20:30:00,
2013-01-27 14:35:00,33.1,26.7,30.17,WNW,283,4.0,13.0,77,0.00,,,0.01,Wunderground v.1.15,2013-01-27 20:35:00,
2013-01-27 14:40:00,32.8,26.7,30.17,SW,226,4.0,4.0,78,0.00,,,0.01,Wunderground v.1.15,2013-01-27 20:40:00,
2013-01-27 14:45:00,32.5,26.7,30.17,WNW,282,4.0,5.0,79,0.00,,,0.01,Wunderground v.1.15,2013-01-27 20:45:00,
2013-01-27 14:50:00,32.1,26.6,30.17,West,269,5.0,13.0,80,0.00,,,0.01,Wunderground v.1.15,2013-01-27 20:50:00,
2013-01-27 14:55:00,31.9,27.0,30.17,SW,232,5.0,13.0,82,0.00,,,0.01,Wunderground v.1.15,2013-01-27 20:55:00,
2013-01-27 15:00:00,31.9,27.0,30.17,West,279,4.0,4.0,82,0.00,,,0.01,Wunderground v.1.15,2013-01-27 21:00:00,
2013-01-27 15:10:00,32.2,27.6,30.17,West,269,3.0,13.0,83,0.00,,,0.01,Wunderground v.1.15,2013-01-27 21:10:00,
2013-01-27 15:15:00,32.4,27.8,30.16,WSW,254,2.0,13.0,83,0.00,,,0.01,Wunderground v.1.15,2013-01-27 21:15:00,
2013-01-27 15:20:00,32.4,27.8,30.16,WSW,257,3.0,13.0,83,0.00,,,0.01,Wunderground v.1.15,2013-01-27 21:20:00,
2013-01-27 15:25:00,32.3,27.7,30.16,WSW,251,4.0,13.0,83,0.00,,,0.01,Wunderground v.1.15,2013-01-27 21:25:00,
2013-01-27 15:30:00,32.1,27.8,30.16,SW,232,4.0,13.0,84,0.00,,,0.01,Wunderground v.1.15,2013-01-27 21:30:00,
2013-01-27 15:35:00,31.9,27.6,30.15,SW,216,3.0,13.0,84,0.00,,,0.01,Wunderground v.1.15,2013-01-27 21:35:00,
2013-01-27 15:40:00,31.8,27.8,30.15,WSW,238,3.0,13.0,85,0.00,,,0.01,Wunderground v.1.15,2013-01-27 21:40:00,
2013-01-27 15:45:00,31.6,27.6,30.15,WSW,256,3.0,13.0,85,0.00,,,0.01,Wunderground v.1.15,2013-01-27 21:45:00,
2013-01-27 15:50:00,31.5,27.8,30.15,WSW,245,3.0,3.0,86,0.00,,,0.01,Wunderground v.1.15,2013-01-27 21:50:00,
2013-01-27 16:00:00,31.3,27.9,30.15,WSW,254,2.0,13.0,87,0.00,,,0.01,Wunderground v.1.15,2013-01-27 22:00:00,
2013-01-27 16:05:00,31.3,27.9,30.15,SW,233,2.0,13.0,87,0.00,,,0.01,Wunderground v.1.15,2013-01-27 22:05:00,
2013-01-27 16:10:00,31.2,28.1,30.15,SW,233,1.0,1.0,88,0.00,,,0.01,Wunderground v.1.15,2013-01-27 22:10:00,
2013-01-27 16:15:00,31.2,28.1,30.15,WSW,242,1.0,13.0,88,0.00,,,0.01,Wunderground v.1.15,2013-01-27 22:15:00,
2013-01-27 16:25:00,31.2,28.1,30.15,WSW,242,0.0,13.0,88,0.00,,,0.01,Wunderground v.1.15,2013-01-27 22:25:00,
2013-01-27 16:30:00,31.3,28.4,30.15,WSW,242,1.0,13.0,89,0.00,,,0.01,Wunderground v.1.15,2013-01-27 22:30:00,
2013-01-27 16:35:00,31.4,28.5,30.15,SW,225,1.0,13.0,89,0.00,,,0.01,Wunderground v.1.15,2013-01-27 22:35:00,
2013-01-27 16:40:00,31.5,28.6,30.14,WSW,244,1.0,1.0,89,0.00,,,0.01,Wunderground v.1.15,2013-01-27 22:40:00,
2013-01-27 16:45:00,31.5,28.6,30.14,West,265,1.0,4.0,89,0.00,,,0.01,Wunderground v.1.15,2013-01-27 22:45:00,
2013-01-27 16:50:00,31.6,28.7,30.14,WNW,287,1.0,13.0,89,0.00,,,0.01,Wunderground v.1.15,2013-01-27 22:50:00,
2013-01-27 16:55:00,31.6,28.7,30.13,SW,229,2.0,13.0,89,0.00,,,0.01,Wunderground v.1.15,2013-01-27 22:55:00,
2013-01-27 17:00:00,31.6,28.7,30.14,SSW,193,2.0,13.0,89,0.00,,,0.01,Wunderground v.1.15,2013-01-27 23:00:00,
2013-01-27 17:05:00,31.6,29.0,30.13,SW,229,3.0,13.0,90,0.00,,,0.01,Wunderground v.1.15,2013-01-27 23:05:00,
2013-01-27 17:10:00,31.5,28.9,30.14,WSW,252,3.0,3.0,90,0.00,,,0.01,Wunderground v.1.15,2013-01-27 23:10:00,
2013-01-27 17:15:00,31.5,28.9,30.14,SW,234,2.0,13.0,90,0.00,,,0.01,Wunderground v.1.15,2013-01-27 23:15:00,
2013-01-27 17:20:00,31.4,28.8,30.13,WSW,254,2.0,13.0,90,0.00,,,0.01,Wunderground v.1.15,2013-01-27 23:20:00,
2013-01-27 17:25:00,31.4,28.8,30.13,WNW,285,2.0,13.0,90,0.00,,,0.01,Wunderground v.1.15,2013-01-27 23:25:00,
2013-01-27 17:30:00,31.4,28.8,30.13,SW,217,2.0,13.0,90,0.00,,,0.01,Wunderground v.1.15,2013-01-27 23:30:00,
2013-01-27 17:35:00,31.3,28.7,30.12,SW,231,2.0,13.0,90,0.00,,,0.01,Wunderground v.1.15,2013-01-27 23:35:00,
2013-01-27 17:40:00,31.3,28.7,30.12,SW,220,2.0,13.0,90,0.00,,,0.01,Wunderground v.1.15,2013-01-27 23:40:00,
2013-01-27 17:50:00,31.2,28.6,30.11,SW,229,1.0,1.0,90,0.00,,,0.01,Wunderground v.1.15,2013-01-27 23:50:00,
2013-01-27 17:55:00,31.2,28.9,30.11,SSW,200,0.0,13.0,91,0.00,,,0.01,Wunderground v.1.15,2013-01-27 23:55:00,
2013-01-27 18:00:00,31.2,28.9,30.11,SSW,192,0.0,13.0,91,0.00,,,0.01,Wunderground v.1.15,2013-01-28 00:00:00,
2013-01-27 18:05:00,31.2,28.9,30.11,SSE,168,0.0,13.0,91,0.00,,,0.01,Wunderground v.1.15,2013-01-28 00:05:00,
2013-01-27 18:10:00,31.2,28.9,30.10,SSE,150,0.0,13.0,91,0.00,,,0.01,Wunderground v.1.15,2013-01-28 00:10:00,
2013-01-27 18:15:00,31.2,28.9,30.09,SSE,148,0.0,13.0,91,0.00,,,0.01,Wunderground v.1.15,2013-01-28 00:15:00,
2013-01-27 18:20:00,31.2,28.9,30.09,SE,134,0.0,13.0,91,0.00,,,0.01,Wunderground v.1.15,2013-01-28 00:20:00,
2013-01-27 18:30:00,31.4,29.1,30.08,SSE,151,1.0,1.0,91,0.00,,,0.01,Wunderground v.1.15,2013-01-28 00:30:00,
2013-01-27 18:40:00,31.6,29.3,30.08,South,171,2.0,2.0,91,0.00,,,0.01,Wunderground v.1.15,2013-01-28 00:40:00,
2013-01-27 18:45:00,31.8,29.7,30.07,South,188,1.0,13.0,92,0.00,,,0.01,Wunderground v.1.15,2013-01-28 00:45:00,
2013-01-27 18:50:00,32.0,29.9,30.07,SSW,201,2.0,2.0,92,0.00,,,0.01,Wunderground v.1.15,2013-01-28 00:50:00,
2013-01-27 18:55:00,32.1,30.0,30.06,SSE,163,2.0,7.0,92,0.00,,,0.01,Wunderground v.1.15,2013-01-28 00:55:00,
2013-01-27 19:00:00,32.1,30.0,30.06,SSW,205,2.0,13.0,92,0.00,,,0.01,Wunderground v.1.15,2013-01-28 01:00:00,
2013-01-27 19:05:00,32.2,30.1,30.06,SSE,148,3.0,13.0,92,0.00,,,0.01,Wunderground v.1.15,2013-01-28 01:05:00,
2013-01-27 19:10:00,32.2,30.1,30.05,SSE,160,2.0,13.0,92,0.00,,,0.01,Wunderground v.1.15,2013-01-28 01:10:00,
2013-01-27 19:15:00,32.2,30.1,30.05,South,182,2.0,13.0,92,0.00,,,0.01,Wunderground v.1.15,2013-01-28 01:15:00,
2013-01-27 19:20:00,32.3,30.2,30.05,South,191,3.0,13.0,92,0.00,,,0.01,Wunderground v.1.15,2013-01-28 01:20:00,
2013-01-27 19:25:00,32.3,30.2,30.04,SW,215,3.0,13.0,92,0.00,,,0.01,Wunderground v.1.15,2013-01-28 01:25:00,
2013-01-27 19:30:00,32.4,30.3,30.04,SSW,194,4.0,4.0,92,0.00,,,0.01,Wunderground v.1.15,2013-01-28 01:30:00,
2013-01-27 19:35:00,32.3,30.2,30.04,South,190,4.0,6.0,92,0.00,,,0.01,Wunderground v.1.15,2013-01-28 01:35:00,
2013-01-27 19:40:00,32.2,30.1,30.04,South,185,5.0,13.0,92,0.00,,,0.01,Wunderground v.1.15,2013-01-28 01:40:00,
2013-01-27 19:45:00,32.1,30.3,30.04,SSE,150,5.0,13.0,93,0.00,,,0.01,Wunderground v.1.15,2013-01-28 01:45:00,
2013-01-27 19:55:00,31.9,30.1,30.04,South,173,3.0,13.0,93,0.00,,,0.01,Wunderground v.1.15,2013-01-28 01:55:00,
2013-01-27 20:05:00,31.7,29.9,30.03,South,184,3.0,13.0,93,0.00,,,0.01,Wunderground v.1.15,2013-01-28 02:05:00,
2013-01-27 20:10:00,31.5,29.7,30.03,SSE,160,3.0,13.0,93,0.00,,,0.01,Wunderground v.1.15,2013-01-28 02:10:00,
2013-01-27 20:20:00,31.4,29.6,30.02,South,191,3.0,3.0,93,0.00,,,0.01,Wunderground v.1.15,2013-01-28 02:20:00,
2013-01-27 20:25:00,31.4,29.6,30.02,SSW,210,3.0,5.0,93,0.00,,,0.01,Wunderground v.1.15,2013-01-28 02:25:00,
2013-01-27 20:35:00,31.3,29.5,30.01,South,179,3.0,13.0,93,0.00,,,0.01,Wunderground v.1.15,2013-01-28 02:35:00,
2013-01-27 20:40:00,31.3,29.5,30.01,South,186,3.0,13.0,93,0.00,,,0.01,Wunderground v.1.15,2013-01-28 02:40:00,
2013-01-27 20:45:00,31.3,29.5,30.01,South,171,3.0,13.0,93,0.00,,,0.01,Wunderground v.1.15,2013-01-28 02:45:00,
2013-01-27 20:50:00,31.4,29.6,30.00,SSE,167,3.0,3.0,93,0.00,,,0.01,Wunderground v.1.15,2013-01-28 02:50:00,
2013-01-27 20:55:00,31.4,29.6,30.00,SW,225,3.0,13.0,93,0.00,,,0.01,Wunderground v.1.15,2013-01-28 02:55:00,
2013-01-27 21:00:00,31.4,29.6,30.00,South,184,3.0,13.0,93,0.00,,,0.01,Wunderground v.1.15,2013-01-28 03:00:00,
2013-01-27 21:10:00,31.5,29.7,30.00,SW,216,3.0,13.0,93,0.00,,,0.01,Wunderground v.1.15,2013-01-28 03:10:00,
2013-01-27 21:15:00,31.6,29.8,29.99,SW,217,3.0,13.0,93,0.00,,,0.01,Wunderground v.1.15,2013-01-28 03:15:00,
2013-01-27 21:20:00,31.7,29.9,29.99,South,187,3.0,3.0,93,0.00,,,0.01,Wunderground v.1.15,2013-01-28 03:20:00,
2013-01-27 21:25:00,31.8,30.0,29.98,SE,145,2.0,13.0,93,0.00,,,0.01,Wunderground v.1.15,2013-01-28 03:25:00,
2013-01-27 21:30:00,31.9,30.1,29.98,South,178,2.0,2.0,93,0.00,,,0.01,Wunderground v.1.15,2013-01-28 03:30:00,
2013-01-27 21:40:00,32.1,30.3,29.98,SW,220,2.0,2.0,93,0.00,,,0.01,Wunderground v.1.15,2013-01-28 03:40:00,
2013-01-27 21:45:00,32.2,30.4,29.97,South,169,2.0,13.0,93,0.00,,,0.01,Wunderground v.1.15,2013-01-28 03:45:00,
2013-01-27 21:55:00,32.4,30.6,29.97,South,181,3.0,13.0,93,0.00,,,0.01,Wunderground v.1.15,2013-01-28 03:55:00,
2013-01-27 22:00:00,32.5,31.0,29.97,South,173,3.0,3.0,94,0.00,,,0.01,Wunderground v.1.15,2013-01-28 04:00:00,
2013-01-27 22:10:00,32.5,31.0,29.96,South,190,3.0,13.0,94,0.00,,,0.01,Wunderground v.1.15,2013-01-28 04:10:00,
2013-01-27 22:15:00,32.5,31.0,29.96,SSW,197,3.0,13.0,94,0.00,,,0.01,Wunderground v.1.15,2013-01-28 04:15:00,
2013-01-27 22:20:00,32.5,31.0,29.96,SSW,210,3.0,13.0,94,0.00,,,0.01,Wunderground v.1.15,2013-01-28 04:20:00,
2013-01-27 22:25:00,32.5,31.0,29.96,SW,219,3.0,13.0,94,0.00,,,0.01,Wunderground v.1.15,2013-01-28 04:25:00,
2013-01-27 22:30:00,32.5,31.0,29.96,WSW,252,2.0,13.0,94,0.00,,,0.01,Wunderground v.1.15,2013-01-28 04:30:00,
2013-01-27 22:40:00,32.6,31.1,29.95,SW,234,3.0,13.0,94,0.00,,,0.01,Wunderground v.1.15,2013-01-28 04:40:00,
2013-01-27 22:45:00,32.7,31.2,29.95,South,175,4.0,13.0,94,0.00,,,0.01,Wunderground v.1.15,2013-01-28 04:45:00,
2013-01-27 22:50:00,32.7,31.2,29.95,WSW,244,3.0,13.0,94,0.00,,,0.01,Wunderground v.1.15,2013-01-28 04:50:00,
2013-01-27 22:55:00,32.7,31.2,29.95,SSW,198,4.0,13.0,94,0.00,,,0.01,Wunderground v.1.15,2013-01-28 04:55:00,
2013-01-27 23:00:00,32.7,31.2,29.95,SSW,211,4.0,4.0,94,0.00,,,0.01,Wunderground v.1.15,2013-01-28 05:00:00,
2013-01-27 23:05:00,32.7,31.2,29.94,SW,221,4.0,13.0,94,0.00,,,0.01,Wunderground v.1.15,2013-01-28 05:05:00,
2013-01-27 23:10:00,32.7,31.2,29.94,South,183,4.0,4.0,94,0.00,,,0.01,Wunderground v.1.15,2013-01-28 05:10:00,
2013-01-27 23:15:00,32.7,31.2,29.94,SW,228,3.0,13.0,94,0.00,,,0.01,Wunderground v.1.15,2013-01-28 05:15:00,
2013-01-27 23:25:00,32.8,31.3,29.94,South,172,2.0,4.0,94,0.00,,,0.01,Wunderground v.1.15,2013-01-28 05:25:00,
2013-01-27 23:30:00,32.8,31.3,29.93,SW,232,3.0,13.0,94,0.00,,,0.01,Wunderground v.1.15,2013-01-28 05:30:00,
2013-01-27 23:35:00,32.8,31.3,29.93,South,176,2.0,13.0,94,0.00,,,0.01,Wunderground v.1.15,2013-01-28 05:35:00,
2013-01-27 23:40:00,32.8,31.3,29.93,SW,219,2.0,2.0,94,0.00,,,0.01,Wunderground v.1.15,2013-01-28 05:40:00,
2013-01-27 23:45:00,32.8,31.3,29.93,SW,224,3.0,3.0,94,0.00,,,0.01,Wunderground v.1.15,2013-01-28 05:45:00,
2013-01-27 23:55:00,32.8,31.3,29.92,SW,225,3.0,13.0,94,0.00,,,0.01,Wunderground v.1.15,2013-01-28 05:55:00,